Location: Finnegan
(51.1333°N, 112.0833°W)
Time: 19:47:10
(UTC+00:00)

Envisat - Pass Details

Date: 05 December 2021
Orbit: 764 x 766 km, 98.2° (Epoch: 26 January)

Event Time Altitude Azimuth Distance (km) Brightness Sun altitude
Rises 11:34:16 0° 23° (NNE) 3,247 6.6 -33.6°
Reaches altitude 10° 11:36:58 10° 36° (NE) 2,315 5.9 -33.2°
Maximum altitude 11:41:11 26° 92° (E) 1,494 5.0 -32.5°
Drops below altitude 10° 11:45:22 10° 148° (SSE) 2,299 5.8 -31.8°
Sets 11:48:02 0° 161° (SSE) 3,220 6.4 -31.4°
